MOLNIYA 1-53

Last updated on Tue Jun 27 2023 00:03:05 GMT+0000 (Coordinated Universal Time)

1 13070U 82015A 23177.13514220 .00001560 00000+0 46949-1 0 9999 2 13070 62.5953 169.6940 6930477 283.2693 13.2277 2.00550414302746
UTC large
Height (km)
Speed (km/s)
/
Latitude / Longitude
Inclination (degrees)
Orbital Period (minutes)
Azimuth
Elevation
Range (km)
Doppler Factor

Next 0 passes for location: London (51.5072 / 0.1276)

Sorry there are no passes over London.
MOLNIYA 1-53